STARLINK-30054 (55706 NORAD) Tracking and Keplerian Element Data

This shows tracking and keplerian element data for the satellite.

Feedback or suggestion? Click here.




ElementValue
Catalog55706
NameSTARLINK-30054
Epoch Orbit130
Epoch Day84.91667824
Epoch Year2023
RAAN128.3843
Inclination43.0004
Eccentricity0.0002107
Argument of Perigee65.484
Mean Anonmoly198.4923
Mean Motion15.66497682
Decay Rate0.00136607
L11 55706U 23026M 23084.91667824 .00136607 00000+0 12561-2 0 9995
L22 55706 43.0004 128.3843 0002107 65.4840 198.4923 15.66497682 1306



Live tracking and technical data element details for STARLINK-30054 (NORAD 55706). STARLINK-30054 can be tracked NOW for your location showing map with azimuth and elevation plus other details from your city location.







IsCatalogInMostPopularTable: catalog: 55706, numindb: 4
Update: records affected: 1



GetName: 55706 STARLINK-30054

Hit Count: updated at: Tue, 28 Mar 2023 01:50:27 GMT